Погода в Астрахани

Погода в Астрахани : погода сейчас, прогноз погоды и архив. Всё, что Вы хотите узнать о погоде в Астрахани!

Хотите узнать прогноз погоды в Астрахани? Тогда Вам сюда: Погода в Астрахани

Поиск расширенной информации на нашем сайте:

Другие новости

Новости СМИ2

Главная страница сайта

Новости сайта

03.07.2017

Напоминаем, что на нашем специализированном сайте Метеоцентр.Азия вы можете получить высокодетализированные автоматические прогнозы погоды по пунктам России, СНГ и мира в авиационном формате (включающие направление и скорость ветра, видимость, явления погоды, количество и форму облачности, нижнюю и верхнюю границу облачности).

Рекомендуем: http://angiosurgery.org/ флебология лечение вен.

Погода в Астрахани - сегодня

Время (UTC), дата Ветер
(°,м/с) 
Видим.   Явления Облачность Т
(°С)
Тd
(°С)
f(%) Тe
(°С)
Pmin
(гПа)
dP
(гПа)
Po
(мм)
O2
(г/м3)
Тmin Tmax R s Состояние
почвы
18 17.11.17 тихо ()   4000 м  дымка  ясно 
-0.7 -1.7 93 -1  1029.8  1.3  774  313           
21 17.11.17 тихо ()   4000 м  дымка  ясно 
-2.7 -3.2 96 -3  1029.9  0.1  774  316           
00 18.11.17 тихо ()   4000 м  дымка [диам. изморози 0 мм]  ясно 
-1.6 -2.7 92 -2  1029.9  774  314           
03 18.11.17 050 (СВ) 4000 м  дымка [диам. изморози 1 мм]  ясно 
-2.5 -3.3 94 -2  1029.6  -0.3  774  315  -3.1         
06 18.11.17 080 (В) 4000 м  дымка  6/0 верхняя 
[Ci fib]
+2.2 -0.1 85 +3  1030  0.4  775  310  -3.4         
09 18.11.17 080 (В) 10 км    9/6 600 м средняя, верхняя 
[Sc|Ac trans|Ci fib]
+7.6 -0 59 +6  1028.8  -1.3  774  303           
12 18.11.17 090 (В) 10 км    9/0 средняя, верхняя 
[Ac trans|Ci sp]
+6.7 -0.9 58 +5  1027.6  -1.2  773  304           
15 18.11.17 080 (В) 10 км    3/0 верхняя 
[Ci fib]
+2.5 -0.6 80 +3  1026.8  -0.7  772  308    +8.4       
18 18.11.17 080 (В) 4000 м  дымка  3/0 верхняя 
[Ci fib]
+1.4 -0.4 88 +2  1025.5  -1.3  771  309           
21 18.11.17 060 (СВ) 4000 м  дымка  10/8 1000 м средняя 
[Sc|Ac As]
+2.8 +1.1 89 +4  1023.8  -1.7  770  307           
00 19.11.17 070 (В) 10 км    9/9 1000 м 
[Sc]
+4.9 +2.3 83 +6  1022.8  -1.1  769  304           
03 19.11.17 070 (В) 10 км    9/6 1000 м средняя 
[Sc|Ac trans]
+5.7 +3.1 83 +5  1021.5  -1.3  768  303  +1         
06 19.11.17 080 (В) 4000 м  слаб. морось  10/10 300 м 
[St]
+6.3 +5.5 95 +6  1021.3  -0.2  768  302           
09 19.11.17 080 (В) 10 км  {морось}  10/6 300 м средняя 
[Frnb|As op]
+8.3 +5.6 83 +8  1020.1  -1.2  767  299           
12 19.11.17 070 (В) 10 км  {туман}  9/9 600 м 
[Sc]
+8.7 +4.9 77 +9  1019  -1.1  766  298           
15 19.11.17 070 (В) 10 км    10/10 600 м 
[Sc]
+7.6 +4.6 81 +8  1018.9  -0.1  766  300    +8.9  0.0     
18 19.11.17 070 (В) 10 км    10/10 600 м 
[Sc]
+7.7 +4.4 80 +9  1018  -0.9  765  299           
21 19.11.17 060 (СВ) 10 км    9/9 600 м 
[Sc]
+8.3 +4.8 79 +8  1016.7  -1.3  764  298           
00 20.11.17 060 (СВ) 10 км    9/9 600 м 
[Sc]
+8.1 +4.7 79 +9  1015.8  -0.9  764  298           
03 20.11.17 060 (СВ) 10 км    9/9 600 м 
[Sc]
+7.9 +4.5 79 +9  1015.3  -0.5  763  298  +7.3         
06 20.11.17 070 (В) 4000 м  дымка  10/10 1000 м 
[Sc]
+6.5 +4 84 +6  1015.3  763  300  +5.7         
09 20.11.17 070 (В) 10 км    10/8 1000 м средняя 
[Sc|Ac As]
+9.3 +4.1 70 +9  1013.3  -2  762  296           
12 20.11.17 тихо ()   10 км    10/8 1000 м средняя 
[Sc|Ac As]
+9.6 +4.2 69 +10  1012.4  -1  761  296           
15 20.11.17 060 (СВ) 10 км    9/0 средняя 
[Ac trans]
+7.1 +3.5 78 +7  1011.5  -0.8  761  298    +10.5       
18 20.11.17 040 (СВ) 10 км    9/0 средняя 
[Ac trans]
+6.1 +3.3 82 +6  1010.3  -1.2  760  299           
Время (UTC), дата Ветер
(°,м/с) 
Видим.   Явления Облачность Т
(°С)
Тd
(°С)
f(%) Тe
(°С)
Pmin
(гПа)
dP
(гПа)
Po
(мм)
O2
(г/м3)
Тmin Tmax R s Состояние
почвы

Для получения пояснительной информации подведите курсор к названию столбца.

ПОГОДА в Астрахани - архив

Всё, что Вы хотите узнать о погоде в Астрахани - удобно и подробно!

Выберите нужную дату (начиная с 1 января 2015* года) и нажмите кнопку "Найти".
Будут отображены архивные сводки погоды по пункту Астрахань, начиная с указанной даты.


Отображать данные в формате CSV (для использования в таблицах Excel)


Внимание! Наш архив погоды предназначен исключительно для личного некоммерческого использования в познавательных целях. Если Вам необходимы официальные справки о состоянии погоды (для производственных, юридических, коммерческих и т.п. целей), обращайтесь в органы Росгидромета.

*Примечание: данная дата относится к архиву по метеостанциям СССР (Россия, СНГ, Балтия).
Архив по метеостанциям Зарубежной Европы и Азии (кроме Китая) хранится 10 дней, по другим регионам земного шара (Китай, Африка, Америка, Австралия, Океания) - 1 день.

Астрахань - район местоположения метеостанции


Название, широта, долгота, высота метеостанции:
Астрахань (обсерватория) 46.3°ш. 47.9°д. -23 м над ур. моря [Российская Федерация]

Дополнительная информация

В oтличие oт бoльшинства пoгoдных сайтoв мы публикуем пoдрoбную метеoинфoрмацию в детальнoм прoфессиoнальнoм фoрмате.

Характеристики температуры и влажнoсти вoздуха измеряются на высoте 2 м в тени вдали oт зданий и деревьев.
Скoрoсть ветра измеряется на высoте 10 м (на урoвне рoста челoвека скoрoсть ветра ниже в 1.5-2 раза). Если метеoстанция нахoдится в гoрoде или в лесу, тo скoрoсть ветра занижена на 2-4 м/с пo сравнению с oткрытым местoм. Скoрoсть ветра над акватoриями крупных рек и oзёр, а также на вершинах хoлмoв на 2-5 м/с выше, чем в oбычных услoвиях.
Атмoсфернoе давление в разных тoчках местнoсти мoжет значительнo oтличаться oт давления на метеoстанции, в зависимoсти oт услoвий рельефа (при пoдъёме на 10 м давление пoнижается примернo на 1 мм рт.ст.).